Volver al catálogo

STARLINK-6059

ActivoComunicacionesVLEO
NORAD 56814·PAYLOAD·🇺🇸 United States

Lanzado May 31, 2023 desde Vandenberg Space Force Base

Loading…

Próximos Pases (próximas 24 horas)

TLE

ActualizadoSource: CelesTrak SupGP

Época: Sep 14, 2026, 22:24 UTC

1 56814C 23078AZ  26257.93381944 -.00001879  00000+0 -15740-3 0  2570
2 56814  70.0011 227.1741 0003357 267.2684 332.6760 14.98340959    12

Sigue STARLINK-6059 en tiempo real con AllMySat

Download on the App Store